Home   Weather   Germany   Duisburg   Past weeks
Flag for Germany

Past Weather in Duisburg, North Rhine-Westphalia, Germany — Yesterday and Last 2 Weeks

Currently: 72 °F. Passing clouds. (Weather station: Duesseldorf, Germany). See more current weather

Past Weather in Duisburg — Graph

°F

Duisburg Temperature Yesterday

Maximum temperature yesterday: 70 °F (at 12:20 pm)
Minimum temperature yesterday: 57 °F (at 9:20 pm)
Average temperature yesterday: 64 °F

High & Low Weather Summary for the Past Weeks

 TemperatureHumidityPressure
High73 °F (Jun 18, 12:20 pm)100% (Jun 9, 4:20 am)30.18 "Hg (Jun 9, 4:20 am)
Low45 °F (Jun 9, 4:50 am)35% (Jun 9, 4:50 pm)29.56 "Hg (Jun 15, 1:20 am)
Average60 °F73%29.90 "Hg
* Reported Jun 7 4:20 pm — Jun 22 4:50 pm, Duisburg. Weather by CustomWeather, © 2024

Note: Actual official high and low records may vary slightly from our data, if they occured in-between our weather recording intervals... More about our weather records

Duisburg Weather History for the Previous 24 Hours

Scroll right to see more
 ConditionsComfort  
Time TempWeatherWind HumidityBarometerVisibility
4:50 pm
Sat, Jun 22
70 °FScattered clouds.8 mph57%29.92 "HgN/A
4:20 pm70 °FScattered clouds.9 mph57%29.92 "HgN/A
3:50 pm70 °FScattered clouds.10 mph57%29.92 "HgN/A
3:20 pm70 °FPartly sunny.10 mph57%29.92 "HgN/A
2:50 pm70 °FScattered clouds.9 mph57%29.92 "HgN/A
2:20 pm68 °FScattered clouds.12 mph56%29.92 "HgN/A
1:50 pm66 °FPartly sunny.10 mph64%29.92 "HgN/A
1:20 pm66 °FPartly sunny.10 mph64%29.92 "HgN/A
12:50 pm66 °FPassing clouds.10 mph60%29.92 "HgN/A
12:20 pm66 °FPassing clouds.12 mph64%29.92 "HgN/A
11:50 am64 °FPassing clouds.12 mph68%29.92 "HgN/A
11:20 am63 °FPassing clouds.12 mph73%29.92 "HgN/A
10:50 am64 °FPassing clouds.10 mph68%29.92 "HgN/A
10:20 am63 °FPassing clouds.9 mph73%29.92 "HgN/A
9:50 am63 °FPassing clouds.13 mph73%29.92 "HgN/A
9:20 am63 °FScattered clouds.10 mph77%29.92 "HgN/A
8:50 am63 °FPassing clouds.10 mph77%29.92 "HgN/A
8:20 am61 °FPartly sunny.7 mph83%29.89 "HgN/A
7:50 am59 °FScattered clouds.9 mph88%29.89 "HgN/A
7:20 am59 °FPassing clouds.9 mph82%29.89 "HgN/A
6:50 am57 °FSunny.8 mph88%29.89 "Hg10 mi
6:20 am55 °FSunny.9 mph94%29.89 "Hg10 mi
5:50 am55 °FPassing clouds.7 mph88%29.89 "HgN/A
5:20 am52 °FSunny.6 mph94%29.89 "Hg10 mi
4:50 am54 °FClear.7 mph94%29.89 "Hg10 mi
4:20 am54 °FClear.8 mph94%29.89 "Hg10 mi
3:50 am55 °FClear.7 mph88%29.89 "Hg10 mi
3:20 am55 °FPassing clouds.7 mph88%29.92 "HgN/A
2:50 am55 °FPassing clouds.7 mph88%29.92 "HgN/A
2:20 am55 °FPassing clouds.6 mph94%29.92 "HgN/A
1:50 am55 °FPassing clouds.7 mph88%29.92 "HgN/A
1:20 am55 °FPassing clouds.7 mph94%29.92 "HgN/A
12:50 am54 °FClear.6 mph94%29.92 "Hg10 mi
12:20 am55 °FClear.7 mph94%29.92 "Hg10 mi
11:50 pm
Fri, Jun 21
57 °FClear.6 mph94%29.92 "Hg10 mi
11:20 pm59 °FLight rain. Clear.8 mph88%29.92 "HgN/A
10:50 pm59 °FPassing clouds.7 mph88%29.92 "HgN/A
10:20 pm57 °FLight rain. Passing clouds.6 mph94%29.92 "Hg5 mi
9:50 pm57 °FRain showers. Broken clouds.7 mph94%29.89 "Hg5 mi
9:20 pm57 °FLight rain. Fog.17 mph88%29.89 "Hg3 mi
8:50 pm61 °FDrizzle. Fog.15 mph94%29.86 "Hg2 mi
8:20 pm61 °FDrizzle. Fog.10 mph94%29.86 "Hg2 mi
7:50 pm61 °FMostly cloudy.14 mph100%29.83 "Hg4 mi
7:20 pm63 °FMostly cloudy.8 mph94%29.83 "Hg6 mi
6:50 pm63 °FLight rain. Fog.12 mph94%29.83 "Hg2 mi
6:20 pm64 °FScattered showers. Fog.16 mph94%29.80 "Hg3 mi
5:50 pm68 °FRain showers. Broken clouds.6 mph88%29.80 "Hg4 mi
5:20 pm68 °FPassing clouds.7 mph88%29.80 "HgN/A
Weather by CustomWeather, © 2024

See weather overview